Погода в Промышленной

Россия / Кемеровская область (Кузбасс)     54°54′59″N   85°38′15″E
темп.,
°C
ветер,
м/с
пор.,
м/с
влажн.,
%
обл.,
%
осадки,
мм/ч
давл.,
гПа
погр.,
м
18 сентября, сб
сб1801:00+17ююв81944100 0.0 997545
04:00+19ююз91632100 0.0 995825
07:00+10з61192100 1.1 1002752
10:00+9з488479 0.1 1006695
13:00+12зюз5861100 0.1 10071474
16:00+13зюз5954100 0.1 10081562
19:00+12зсз365347 0.1 1009205
22:00+7ссз237282 0.0 101047
19 сентября, вс
вс1901:00+7зсз117094 0.0 101031
04:00+5юз1178100 0.0 101010
07:00+5ю23795 0.0 101044
10:00+10ююз5955100 0.0 1009571
13:00+13юз7104375 0.0 10081587
16:00+14юз5945100 0.0 10071873
19:00+11зсз4864100 0.0 1008496
22:00+8юз3689100 2.1 1008196
20 сентября, пн
пн2001:00+6зсз358442 2.8 1008119
04:00+3з379281 0.0 1009145
07:00+3юз378883 0.0 1010157
10:00+6зюз6107643 0.3 1012943
13:00+8зюз81151100 0.4 10132082
16:00+8зюз81153100 0.0 10131784
19:00+6зюз61160100 0.1 10141264
22:00+4юз51068100 0.0 1013534
21 сентября, вт
вт2101:00+4юз51066100 0.0 1012801
04:00+3зюз51087100 0.0 1012754
07:00+2юз4999100 1.0 1013542
10:00+3з6985100 0.9 1014830
13:00+4з6875100 1.2 10141112
16:00+3з599470 0.6 1015607
19:00+3з488793 1.1 1016480
22:00+1зюз3897100 0.1 1018406
22 сентября, ср
ср2201:00+2зюз4686100 0.1 1019537
04:00+2юз4797100 0.4 1018361
07:00+1зюз4794100 0.6 1019495
10:00+2зюз3491100 0.1 1019500
13:00+2зюз4796100 1.2 1019447
16:00+3зюз5796100 0.7 1019535
19:00+2юз3591100 1.0 1020422
22:00+1ююз3698100 0.0 1020291